Park Rapids, MN

9:05 PM CDT on August 16, 2017 (GMT -0500)
Park Rapids Municipal

Weather History for KPKD - September, 2012

Change the Weather History Date:

Sunday, September 9, 2012

  Actual Average Record
Temperature  
Mean Temperature 54 °F -  
Max Temperature 70 °F 72 °F 89 °F (1961)
Min Temperature 39 °F 49 °F 36 °F (1995)
Degree Days  
Heating Degree Days 11    
Growing Degree Days 4 (Base 50)    
Moisture  
Dew Point 45 °F    
Average Humidity 77    
Maximum Humidity 100    
Minimum Humidity 39    
Precipitation  
Precipitation 0.00 in - - ()
Sea Level Pressure  
Sea Level Pressure 30.16 in    
Wind  
Wind Speed 4 mph (WNW)    
Max Wind Speed 8 mph    
Max Gust Speed -    
Visibility 8 miles    
Events Fog    
Averages and records for this station are not official NWS values.
T = Trace of Precipitation, MM = Missing Value Source: NWS Daily Summary

Daily Weather History Graph

Daily Weather History Graph

Search for Another Location

Airport or City:

Trip Planner

Search our weather history database for the weather conditions in past years. The results will help you decide how hot, cold, wet, or windy it might be!

Date:

Astronomy

Sep. 09, 2012 Rise Set
Actual Time 6:50 AM CDT 7:43 PM CDT
Civil Twilight 6:19 AM CDT 8:13 PM CDT
Nautical Twilight 5:43 AM CDT 8:50 PM CDT
Astronomical Twilight 5:04 AM CDT 9:29 PM CDT
Moon 12:03 AM CDT (9/9) 3:45 PM CDT (9/9)
Length of Visible Light 13h 53m
Length of Day
12h 52m
Last Quarter, 39% of the Moon is Illuminated
Sep 9
Last Quarter
Sep 15
New
Sep 22
First Quarter
Sep 29
Full
Oct 8
Last Quarter

Hourly Weather History & Observations

Time (CDT) Temp. Windchill Dew Point Humidity Pressure Visibility Wind Dir Wind Speed Gust Speed Precip Events Conditions
12:53 AM 48.0 °F - 44.1 °F 86% 30.14 in 10.0 mi NNW 5.8 mph - N/A   Clear
1:53 AM 48.0 °F - 44.1 °F 86% 30.14 in 10.0 mi NNW 6.9 mph - N/A   Clear
2:53 AM 46.9 °F - 44.1 °F 90% 30.15 in 10.0 mi NNW 6.9 mph - N/A   Clear
3:53 AM 42.1 °F - 39.9 °F 92% 30.17 in 10.0 mi Calm Calm - N/A   Clear
4:53 AM 39.0 °F 36.8 °F 37.0 °F 93% 30.19 in 10.0 mi WNW 3.5 mph - N/A   Clear
5:37 AM 39.2 °F 35.9 °F 37.4 °F 93% 30.17 in 10.0 mi WNW 4.6 mph - N/A   Scattered Clouds
5:46 AM 39.2 °F 37.0 °F 37.4 °F 93% 30.17 in 9.0 mi WNW 3.5 mph - N/A   Mostly Cloudy
5:53 AM 43.0 °F 41.3 °F 41.0 °F 93% 30.20 in 10.0 mi NW 3.5 mph - N/A   Mostly Cloudy
6:50 AM 48.2 °F - 46.4 °F 93% 30.19 in 1.8 mi North 3.5 mph - N/A   Overcast
6:53 AM 48.0 °F - 46.0 °F 93% 30.22 in 1.2 mi North 3.5 mph - N/A   Overcast
7:11 AM 48.2 °F - 46.4 °F 93% 30.20 in 0.5 mi NNW 3.5 mph - N/A Fog Fog
7:53 AM 48.0 °F - 46.9 °F 96% 30.22 in 0.2 mi NNW 3.5 mph - N/A Fog Fog
8:22 AM 48.2 °F - 48.2 °F 100% 30.20 in 0.5 mi Calm Calm - N/A Fog Fog
8:29 AM 48.2 °F - 48.2 °F 100% 30.20 in 2.0 mi NE 3.5 mph - N/A   Overcast
8:36 AM 48.2 °F - 46.4 °F 93% 30.21 in 9.0 mi East 3.5 mph - N/A   Overcast
8:53 AM 48.9 °F - 46.9 °F 93% 30.23 in 3.0 mi Calm Calm - N/A   Overcast
9:53 AM 51.1 °F - 48.0 °F 89% 30.24 in 10.0 mi Calm Calm - N/A   Overcast
10:04 AM 51.8 °F - 48.2 °F 88% 30.22 in 10.0 mi Calm Calm - N/A   Overcast
10:53 AM 53.1 °F - 48.0 °F 83% 30.23 in 10.0 mi Variable 3.5 mph - N/A   Overcast
11:32 AM 57.2 °F - 48.2 °F 72% 30.22 in 10.0 mi West 5.8 mph - N/A   Partly Cloudy
11:53 AM 57.9 °F - 48.9 °F 72% 30.23 in 10.0 mi Calm Calm - N/A   Clear
12:53 PM 61.0 °F - 46.9 °F 60% 30.20 in 10.0 mi Calm Calm - N/A   Partly Cloudy
1:53 PM 66.0 °F - 46.0 °F 48% 30.18 in 10.0 mi West 6.9 mph - N/A   Clear
2:53 PM 68.0 °F - 44.1 °F 42% 30.15 in 10.0 mi Variable 3.5 mph - N/A   Clear
3:53 PM 69.8 °F - 44.6 °F 40% 30.12 in 10.0 mi Variable 4.6 mph - N/A   Clear
4:53 PM 69.1 °F - 43.0 °F 39% 30.12 in 10.0 mi Variable 3.5 mph - N/A   Clear
5:53 PM 69.1 °F - 44.1 °F 40% 30.09 in 10.0 mi South 8.1 mph - N/A   Clear
6:53 PM 66.0 °F - 42.1 °F 42% 30.08 in 10.0 mi SSW 5.8 mph - N/A   Clear
7:53 PM 63.0 °F - 44.1 °F 50% 30.06 in 10.0 mi SE 4.6 mph - N/A   Clear
8:53 PM 57.0 °F - 45.0 °F 64% 30.07 in 10.0 mi SSE 4.6 mph - N/A   Clear
9:53 PM 55.0 °F - 45.0 °F 69% 30.06 in 10.0 mi SSE 5.8 mph - N/A   Clear
10:53 PM 53.1 °F - 44.1 °F 71% 30.05 in 10.0 mi SE 6.9 mph - N/A   Clear
11:53 PM 52.0 °F - 44.1 °F 74% 30.04 in 10.0 mi SSE 5.8 mph - N/A   Clear